COSMOS 2251 DEB, 37280

Orbit data source: Space-Track

COSMOS 2251 DEB, 37280 is space debris in LEO originally from a launch on Wed, 16 Jun 1993 UTC launched from the Plesetsk Missile And Space Complex (PKMTR). The debris from Iridium 33, an American commercial communications satellite, has been tracked extensively since its accidental collision with the defunct Russian satellite Cosmos 2251 in 2009. This event, occurring at high speed in low Earth orbit (LEO), generated thousands of pieces of space debris, significantly increasing the risk of further collisions. The Iridium 33 debris cloud has impacted space traffic management and orbital debris mitigation strategies, making it a subject of ongoing study in space situational awareness.

Loading next visibility...
Identifier
37280, 1993-036BHU
Orbit
LEO
Country
Flag of CISCIS
Related business
Manufacturer
Unknown
Mission
Spacecraft
Bus & Motor
Unknown
Mass
Unknown
Launch date (UTC)
1993-06-16 (32 years ago)
Launch vehicle
Unknown
Launch site
Plesetsk Missile And Space Complex (PKMTR)
Object type
Payload
Rocket body
Debris
Shape & HBR
Unknown shape, 0.1 m
Radar Cross Section
Small (<0.1 m²)

Expand to show TLE details & history
Last TLE update: 21 hours ago

TLE from 21 hours ago
0 COSMOS 2251 DEB
1 37280U 93036BHU 25310.21667245  .00004223  00000-0  18697-2 0  9999
2 37280  74.0286 122.3382 0132168 258.1800 100.4495 14.18885852568052
Epoch: 2025-11-06T05:12Z
TLE epoch observation values (Epoch: 2025-11-06T05:12:00.499Z)
Latitude
-0.00001°
Longitude
-1.34205°
Altitude
850.206 km
Speed
7.418 km/s
True Right ascension
08h 09m 21s
True Declination
0° 00' 00"
Sunlit
Object was in daylight at epoch
Visualization orbit readout
Latitude
Unknown
Longitude
Unknown
Altitude
Unknown
Speed
Unknown
Apparent Right ascension
Unknown
Apparent Declination
Unknown
Sunlit
N/A
Visualization observer readout
Local Sidereal Time
22:19:16
Azimuth
Unknown
Elevation
Unknown
Doppler factor
Unknown
Orbital elements
Apogee altitude
921.992 km
Perigee altitude
731.54 km
Semi-major axis
7,204.903 km
Eccentricity
0.01322
Inclination
74.0286°
RAAN
122.3382°
Arg. of periapsis
258.18°
True anomaly
101.9343°
Mean anomaly
100.4495°
Eccentric anomaly
101.19236°
Mean motion
3.54896 °/min
Orbital period
101.44 mins
BSTAR
0.0018697
Loading maneuver chart data...
Computing Atmospheric mass density...

Documentation

Showing up to 5 results
|